Regional Weather Roundup
Issued by NWS

Home | Current Version | Previous Version | Text Only | Print | Product List | Glossary On
Versions: 1 2 3 4 5 6 7 8 9 10 11 12 13 14 15 16 17 18 19 20 21 22 23 24 25 26 27 28 29 30 31 32 33 34 35 36 37 38 39 40 41 42 43 44 45 46 47 48 49 50
000
ASUS44 KMEG 060910
RWRTN
TENNESSEE HOURLY STATE WEATHER ROUNDUP
NATIONAL WEATHER SERVICE MEMPHIS TN
400 AM CDT WED MAY 06 2015

TNZ002-004-019-021-049-052-054-088>092-061000-
WEST TENNESSEE

CITY           SKY/WX    TMP DP  RH WIND       PRES   REMARKS
MEMPHIS INTL   CLEAR     68  55  63 S7        30.12S
NWS MEMPHIS      N/A     59 N/A N/A MISG        N/A
JACKSON        CLEAR     55  52  89 CALM      30.14F
DYERSBURG      CLEAR     61  45  55 CALM      30.15S
PARIS          CLEAR     55  52  88 CALM      30.16S
LEXINGTON      CLEAR     54  54 100 CALM      30.15S
$$

TNZ008-025-027-028-033-062-065-066-061000-
NORTH MIDDLE TENNESSEE

CITY           SKY/WX    TMP DP  RH WIND       PRES   REMARKS
NASHVILLE      PTCLDY    61  57  87 SE3       30.19S
CLARKSVILLE    CLEAR     57  54  89 E3        30.17S
SMYRNA         PTCLDY    61  58  90 CALM      30.19F
COOKEVILLE     MOCLDY    63  57  82 SE5       30.20F
CROSSVILLE     CLOUDY    65  52  62 CALM      30.25F
$$

TNZ061-075-076-078-094-096-097-061000-
SOUTH MIDDLE TENNESSEE

CITY           SKY/WX    TMP DP  RH WIND       PRES   REMARKS
FAYETTEVILLE     N/A     61  52  72 CALM      30.20S
TULLAHOMA      PTCLDY    59  55  88 CALM      30.22S
WINCHESTER     CLEAR     61  55  82 CALM      30.21S
MCMINNVILLE    CLOUDY    63  63 100 CALM      30.21S
COLUMBIA       CLEAR     55  55 100 CALM      30.17S
SHELBYVILLE    CLOUDY    61  59  94 E5        30.20F
$$

TNZ017-018-042-046-047-061000-
NORTHEAST TENNESSEE

CITY           SKY/WX    TMP DP  RH WIND       PRES   REMARKS
TRI CITIES     PTCLDY    60  55  83 E3        30.25S
ELIZABETHTON   SUNNY     55  52  88 CALM      30.26S
$$

TNZ012-013-036-069-073-074-061000-
CENTRAL EAST TENNESSEE

CITY           SKY/WX    TMP DP  RH WIND       PRES   REMARKS
KNOXVILLE      PTCLDY    61  56  83 E3        30.22S
OAK RIDGE      PTCLDY    62  58  86 CALM      30.23F
GATLINBURG     MOSUNNY   55  55 100 CALM      30.22F
MORRISTOWN     MOSUNNY   61  57  88 CALM      30.24F
$$

TNZ083-085-099-061000-
SOUTHEAST TENNESSEE

CITY           SKY/WX    TMP DP  RH WIND       PRES   REMARKS
CHATTANOOGA    CLEAR     60  56  86 CALM      30.21F
$$

SKY/WX REPORTED AS FAIR MEANS FEW OR NO CLOUDS BELOW
12 THOUSAND FEET.



USA.gov is the U.S. government's official web portal to all federal, state and local government web resources and services.